Find Kosmos-1860

NORAD ID: 18122 Int'l Des: 1987-052 Owner: VMF Country: SU operational
LEOCIRCULAR

实时位置

正在加载3D地球...

关于 Kosmos-1860

正在加载描述...

即将过境

Passes for default location (London). Set your location on the main map for personalized predictions.

高度历史

Loading altitude history...

两行轨道根数

1 18122U 87052A 26106.57678539 -.00000054 00000-0 30205-4 0 9995
2 18122 65.0101 189.1961 0059783 226.7354 132.8710 13.84966573964288
Epoch: Apr 16, 2026 • Age: 11 hours

当前状态

高度 974.7 km
速度 7.36 km/s
星下点 58.56°N, 101.89°E
发射日期 Jun 18, 1987
运行时间 38.8 years
类型 other

技术详情

分类 Payload
质量 1154.00 kg
干质量 1154.00 kg
总质量 4300.00 kg
长度 5.80 m
直径 1.30 m
跨度 5.80 m
形状 Cyl
制造商 ARSL/KOMET
平台类型 US-A reactor
阶段状态 In Orbit
所有者/国家 VMF/SU

Most Searched